Weather History for KSWO - August, 2013

Change the Weather History Date:

Monday, August 26, 2013

  Actual Average Record
Temperature  
Mean Temperature 82 °F -  
Max Temperature 95 °F 92 °F 109 °F (1999)
Min Temperature 71 °F 67 °F 52 °F (2010)
Cooling Degree Days 17    
Growing Degree Days 32 (Base 50)    
Moisture  
Dew Point 70 °F    
Average Humidity 67    
Maximum Humidity 91    
Minimum Humidity 47    
Precipitation  
Precipitation 0.00 in - - ()
Sea Level Pressure  
Sea Level Pressure 30.11 in    
Wind  
Wind Speed 8 mph (SSE)    
Max Wind Speed 15 mph    
Max Gust Speed 18 mph    
Visibility 10 miles    
Events      
Averages and records for this station are not official NWS values.
T = Trace of Precipitation, MM = Missing Value Source: NWS Daily Summary

Daily Weather History Graph

Daily Weather History Graph

Search for Another Location

Airport or City:

Trip Planner

Search our weather history database for the weather conditions in past years. The results will help you decide how hot, cold, wet, or windy it might be!

Date:

Astronomy

Aug. 26, 2013 Rise Set
Actual Time 6:55 AM CDT 8:04 PM CDT
Civil Twilight 6:28 AM CDT 8:30 PM CDT
Nautical Twilight 5:57 AM CDT 9:02 PM CDT
Astronomical Twilight 5:24 AM CDT 9:34 PM CDT
Moon 11:28 PM CDT (8/26) 12:45 PM CDT (8/26)
Length of Visible Light 14h 01m
Length of Day
13h 08m
Waning Gibbous, 66% of the Moon is Illuminated
Aug 26
Waning Gibbous
Aug 28
Last Quarter
Sep 5
New
Sep 12
First Quarter
Sep 19
Full

Hourly Weather History & Observations

Time (CDT) Temp. Heat Index Dew Point Humidity Pressure Visibility Wind Dir Wind Speed Gust Speed Precip Events Conditions
12:05 AM 80.6 °F 84.6 °F 71.6 °F 74% 30.15 in 10.0 mi SE 8.1 mph - N/A   Mostly Cloudy
12:53 AM 80.1 °F 83.2 °F 70.0 °F 71% 30.11 in 10.0 mi SE 10.4 mph - N/A   Mostly Cloudy
1:30 AM 78.8 °F - 69.8 °F 74% 30.15 in 10.0 mi SE 9.2 mph - N/A   Scattered Clouds
1:53 AM 78.1 °F - 70.0 °F 76% 30.11 in 10.0 mi SSE 8.1 mph - N/A   Partly Cloudy
2:53 AM 75.0 °F - 70.0 °F 84% 30.11 in 10.0 mi SSE 5.8 mph - N/A   Clear
3:53 AM 72.0 °F - 69.1 °F 91% 30.12 in 10.0 mi South 4.6 mph - N/A   Clear
4:53 AM 72.0 °F - 68.0 °F 87% 30.12 in 10.0 mi South 5.8 mph - N/A   Clear
5:53 AM 71.1 °F - 68.0 °F 90% 30.13 in 10.0 mi SSE 4.6 mph - N/A   Clear
6:53 AM 71.1 °F - 66.9 °F 87% 30.14 in 10.0 mi SSE 4.6 mph - N/A   Clear
7:53 AM 75.0 °F - 69.1 °F 82% 30.15 in 10.0 mi South 4.6 mph - N/A   Clear
8:53 AM 80.1 °F 82.9 °F 69.1 °F 69% 30.15 in 10.0 mi South 9.2 mph - N/A   Clear
9:50 AM 84.2 °F 88.4 °F 69.8 °F 62% 30.19 in 10.0 mi South 8.1 mph - N/A   Partly Cloudy
9:53 AM 84.9 °F 89.4 °F 70.0 °F 61% 30.15 in 10.0 mi South 10.4 mph - N/A   Partly Cloudy
10:53 AM 88.0 °F 93.8 °F 71.1 °F 57% 30.16 in 10.0 mi South 10.4 mph - N/A   Clear
11:53 AM 91.0 °F 97.6 °F 71.1 °F 52% 30.15 in 10.0 mi SW 8.1 mph - N/A   Clear
12:10 PM 91.4 °F 98.4 °F 71.6 °F 52% 30.19 in 10.0 mi South 10.4 mph - N/A   Partly Cloudy
12:53 PM 91.9 °F 98.4 °F 71.1 °F 50% 30.14 in 10.0 mi South 11.5 mph - N/A   Partly Cloudy
1:53 PM 93.9 °F 100.8 °F 71.1 °F 47% 30.12 in 10.0 mi SSE 9.2 mph 17.3 mph N/A   Partly Cloudy
2:53 PM 93.0 °F 100.1 °F 71.1 °F 49% 30.10 in 10.0 mi South 13.8 mph - N/A   Scattered Clouds
3:53 PM 93.0 °F 100.1 °F 71.1 °F 49% 30.08 in 10.0 mi South 10.4 mph 18.4 mph N/A   Partly Cloudy
4:53 PM 93.0 °F 99.0 °F 70.0 °F 47% 30.06 in 10.0 mi SSE 13.8 mph - N/A   Scattered Clouds
5:53 PM 90.0 °F 93.6 °F 68.0 °F 48% 30.06 in 10.0 mi SSE 15.0 mph 18.4 mph N/A   Partly Cloudy
6:53 PM 87.1 °F 90.6 °F 68.0 °F 53% 30.05 in 10.0 mi South 9.2 mph - N/A   Clear
7:53 PM 82.0 °F 84.9 °F 68.0 °F 62% 30.05 in 10.0 mi SSE 6.9 mph - N/A   Clear
8:53 PM 80.1 °F 82.7 °F 68.0 °F 67% 30.06 in 10.0 mi SE 5.8 mph - N/A   Clear
9:53 PM 79.0 °F - 69.1 °F 72% 30.07 in 10.0 mi SE 5.8 mph - N/A   Clear
10:53 PM 78.1 °F - 70.0 °F 76% 30.07 in 10.0 mi ESE 5.8 mph - N/A   Clear
11:20 PM 78.8 °F - 69.8 °F 74% 30.11 in 10.0 mi SE 6.9 mph - N/A   Partly Cloudy
11:53 PM 78.1 °F - 70.0 °F 76% 30.06 in 10.0 mi SE 6.9 mph - N/A   Partly Cloudy